Weather History for Meeker, CO

Change the Weather History Date:

Monday, November 14, 2011

  Actual Average Record
Temperature  
Mean Temperature 34 °F 33 °F  
Max Temperature 48 °F 46 °F 64 °F (1999)
Min Temperature 21 °F 20 °F 3 °F (2000)
Degree Days  
Heating Degree Days 30 32  
Month to date heating degree days 413  
Since 1 July heating degree days 1357  
Cooling Degree Days 0 0  
Month to date cooling degree days 0  
Year to date cooling degree days 172  
Moisture  
Dew Point 19 °F    
Average Humidity 54    
Maximum Humidity 85    
Minimum Humidity 24    
Precipitation  
Precipitation 0.00 in 0.05 in 0.27 in (2005)
Month to date precipitation 0.77  
Year to date precipitation 14.25  
Sea Level Pressure  
Sea Level Pressure 29.81 in    
Wind  
Wind Speed 6 mph (WSW)    
Max Wind Speed 29 mph    
Max Gust Speed 39 mph    
Visibility 10 miles    
Events      
T = Trace of Precipitation, MM = Missing Value Source: NWS Daily Summary

Daily Weather History Graph

Daily Weather History Graph

Search for Another Location

Airport:

Trip Planner

Search our weather history database for the weather conditions in past years. The results will help you decide how hot, cold, wet, or windy it might be!

Date:

Astronomy

Nov. 14, 2011 Rise Set
Actual Time 6:55 AM MST 4:56 PM MST
Civil Twilight 6:26 AM MST 5:24 PM MST
Nautical Twilight 5:53 AM MST 5:57 PM MST
Astronomical Twilight 5:21 AM MST 6:29 PM MST
Moon 8:06 PM MST (11/14) 10:16 AM MST (11/14)
Length of Visible Light 10h 58m
Length of Day
10h 00m
Waning Gibbous, 86% of the Moon is Illuminated
Nov 14
Waning Gibbous
Nov 18
Last Quarter
Nov 24
New
Dec 2
First Quarter
Dec 10
Full

Hourly Weather History & Observations

Time (MST) Temp. Windchill Dew Point Humidity Pressure Visibility Wind Dir Wind Speed Gust Speed Precip Events Conditions
12:53 AM 24.1 °F - 19.9 °F 84% 29.87 in 10.0 mi Calm Calm - N/A   Clear
1:53 AM 26.1 °F - 19.9 °F 78% 29.86 in 10.0 mi Calm Calm - N/A   Clear
2:53 AM 26.1 °F - 21.0 °F 81% 29.85 in 10.0 mi Calm Calm - N/A   Clear
3:53 AM 30.9 °F 27.5 °F 19.9 °F 64% 29.82 in 10.0 mi NNW 3.5 mph - N/A   Clear
4:53 AM 26.1 °F - 19.0 °F 75% 29.87 in 10.0 mi Calm Calm - N/A   Clear
5:53 AM 21.9 °F - 18.0 °F 85% 29.88 in 10.0 mi Calm Calm - N/A   Clear
7:53 AM 26.1 °F 20.5 °F 19.0 °F 75% 29.88 in 10.0 mi North 4.6 mph - N/A   Clear
8:53 AM 30.9 °F - 21.9 °F 69% 29.87 in 10.0 mi Calm Calm - N/A   Clear
9:53 AM 39.0 °F - 26.1 °F 60% 29.85 in 10.0 mi Calm Calm - N/A   Clear
10:53 AM 44.1 °F 38.6 °F 21.0 °F 40% 29.83 in 10.0 mi SW 10.4 mph 17.3 mph N/A   Clear
11:53 AM 46.9 °F - 23.0 °F 39% 29.78 in 10.0 mi SW 12.7 mph 20.7 mph N/A   Scattered Clouds
12:53 PM 46.9 °F - 12.0 °F 24% 29.76 in 10.0 mi WSW 18.4 mph 27.6 mph N/A   Clear
1:53 PM 48.0 °F - 12.0 °F 24% 29.73 in 10.0 mi West 28.8 mph 39.1 mph N/A   Clear
2:53 PM 46.9 °F - 18.0 °F 32% 29.71 in 10.0 mi SW 17.3 mph 28.8 mph N/A   Mostly Cloudy
3:53 PM 46.0 °F 39.3 °F 21.0 °F 37% 29.70 in 10.0 mi SW 16.1 mph 26.5 mph N/A   Overcast
4:53 PM 42.1 °F 34.5 °F 23.0 °F 47% 29.77 in 10.0 mi SSW 15.0 mph 23.0 mph N/A   Partly Cloudy
6:53 PM 39.0 °F 33.4 °F 23.0 °F 53% 29.86 in 10.0 mi WSW 8.1 mph - N/A   Clear
7:53 PM 39.9 °F 31.8 °F 21.0 °F 47% 29.83 in 10.0 mi SW 15.0 mph 21.9 mph N/A   Clear
8:53 PM 39.9 °F 32.1 °F 19.9 °F 45% 29.82 in 10.0 mi West 13.8 mph - N/A   Clear
9:53 PM 39.0 °F 31.4 °F 18.0 °F 43% 29.80 in 10.0 mi WSW 12.7 mph 19.6 mph N/A   Clear
10:53 PM 37.9 °F 30.5 °F 16.0 °F 41% 29.78 in 10.0 mi WSW 11.5 mph - N/A   Clear
11:53 PM 37.9 °F 30.9 °F 14.0 °F 38% 29.78 in 10.0 mi West 10.4 mph - N/A   Clear